GW3178 Weather Reports


time (UTC)temp
C
wind
direction
speed
KPH
gust
KPH
rain 1hr
cm
rain 24hr
cm
rain mn
cm
humidity
%
barometer
mb
20260504050629 5 163 0.0 0.0 0.00 0.00 0.00 81 1013.3
20260504050126 5 162 0.0 0.0 0.00 0.00 0.00 81 1013.2
20260504045624 5 163 0.0 0.0 0.00 0.00 0.00 80 1013.3
20260504045118 5 163 0.0 0.0 0.00 0.00 0.00 79 1013.4
20260504044616 5 163 0.0 0.0 0.00 0.00 0.00 79 1013.5
20260504044113 5 163 0.0 0.0 0.00 0.00 0.00 79 1013.4
20260504043610 5 164 0.0 0.0 0.00 0.00 0.00 79 1013.4
20260504043107 5 165 0.0 0.0 0.00 0.00 0.00 80 1013.4
20260504042604 5 150 0.0 0.0 0.00 0.00 0.00 80 1013.3
20260504042101 5 150 0.0 0.0 0.00 0.00 0.00 79 1013.3
20260504041557 5 150 0.0 0.0 0.00 0.00 0.00 77 1013.3
20260504041053 6 150 0.0 0.0 0.00 0.00 0.00 77 1013.3
20260504040551 6 150 0.0 0.0 0.00 0.00 0.00 76 1013.1
20260504040047 6 150 0.0 0.0 0.00 0.00 0.00 77 1013.1
20260504035544 6 150 0.0 0.0 0.00 0.00 0.00 76 1013.0
20260504035040 6 150 0.0 0.0 0.00 0.00 0.00 76 1013.1
20260504034539 6 150 0.0 0.0 0.00 0.00 0.00 74 1013.1
20260504034035 6 150 0.0 0.0 0.00 0.00 0.00 74 1013.1
20260504033533 6 150 0.0 0.0 0.00 0.00 0.00 74 1012.9
20260504033030 6 150 0.0 0.0 0.00 0.00 0.00 73 1013.2
20260504032527 6 150 0.0 0.0 0.00 0.00 0.00 72 1013.0
20260504032024 7 150 0.0 0.0 0.00 0.00 0.00 73 1012.8
20260504031521 7 150 0.0 0.0 0.00 0.00 0.00 72 1013.1
20260504031017 7 150 0.0 0.0 0.00 0.00 0.00 71 1013.1
20260504030515 7 150 0.0 0.0 0.00 0.00 0.00 70 1013.0
20260504030010 7 150 0.0 0.0 0.00 0.00 0.00 68 1012.9
20260504025508 7 150 0.0 0.0 0.00 0.00 0.00 67 1013.0
20260504025004 7 150 0.0 0.0 0.00 0.00 0.00 68 1013.0
20260504024502 8 150 0.0 0.0 0.00 0.00 0.00 68 1013.0
20260504023959 8 152 0.0 0.0 0.00 0.00 0.00 65 1012.9
20260504023455 8 151 0.0 0.0 0.00 0.00 0.00 63 1013.1
20260504022950 9 152 0.0 0.0 0.00 0.00 0.00 60 1013.0
20260504022447 9 153 0.0 0.0 0.00 0.00 0.00 61 1013.0
20260504021944 9 152 0.0 0.0 0.00 0.00 0.00 60 1012.6
20260504021441 9 158 0.0 0.0 0.00 0.00 0.00 59 1013.2
20260504020938 9 158 0.0 0.0 0.00 0.00 0.00 62 1013.0
20260504020434 10 158 0.0 0.0 0.00 0.00 0.00 59 1012.8
20260504015931 10 156 0.0 0.0 0.00 0.00 0.00 54 1012.6
20260504015427 10 155 0.0 0.0 0.00 0.00 0.00 56 1012.9
20260504014923 10 159 0.0 0.0 0.00 0.00 0.00 54 1012.5
20260504014420 10 160 0.0 0.0 0.00 0.00 0.00 55 1012.8
20260504013916 10 159 0.0 0.0 0.00 0.00 0.00 53 1012.9
20260504013415 10 168 0.0 0.0 0.00 0.00 0.00 53 1012.5
20260504012911 10 170 0.0 0.0 0.00 0.00 0.00 52 1012.3
20260504012409 11 163 0.0 0.0 0.00 0.00 0.00 52 1012.5
20260504011906 11 161 0.0 0.0 0.00 0.00 0.00 52 1012.4
20260504011403 11 161 0.0 0.0 0.00 0.00 0.00 51 1012.2
20260504010859 11 166 0.0 0.0 0.00 0.00 0.00 49 1012.8
20260504010354 11 166 0.0 0.0 0.00 0.00 0.00 47 1012.4
20260504005845 12 160 0.0 0.0 0.00 0.00 0.00 46 1012.4
20260504005342 12 169 0.0 0.0 0.00 0.00 0.00 44 1012.3
20260504004839 12 170 0.0 0.0 0.00 0.00 0.00 43 1012.2
20260504004337 13 168 0.0 0.0 0.00 0.00 0.00 42 1012.0
20260504003833 13 164 0.0 0.0 0.00 0.00 0.00 41 1012.2
20260504003330 13 165 0.0 0.0 0.00 0.00 0.00 42 1012.1
20260504002827 12 166 0.0 0.0 0.00 0.00 0.00 41 1012.0
20260504002324 13 183 0.0 0.0 0.00 0.00 0.00 41 1011.7
20260504001822 13 170 0.0 0.0 0.00 0.00 0.00 40 1011.9
20260504001319 13 170 0.0 0.0 0.00 0.00 0.00 41 1011.9
20260504000815 13 167 0.0 0.0 0.00 0.00 0.00 39 1011.9
20260504000312 13 167 0.0 0.0 0.00 0.00 0.00 41 1011.9
20260503235810 13 167 0.0 0.0 0.00 0.00 0.00 40 1011.9
20260503235308 13 177 0.0 0.0 0.00 0.00 0.00 40 1012.0
20260503234805 14 171 0.0 0.0 0.00 0.00 0.00 40 1011.7
20260503234303 14 186 0.0 0.0 0.00 0.00 0.00 40 1011.7
20260503233800 15 169 1.6 1.6 0.00 0.00 0.00 39 1011.8
20260503233255 15 236 0.0 1.6 0.00 0.00 0.00 39 1011.8
20260503232753 15 182 1.6 1.6 0.00 0.00 0.00 39 1011.6
20260503232250 15 193 0.0 0.0 0.00 0.00 0.00 40 1011.9
20260503231748 15 176 0.0 0.0 0.00 0.00 0.00 39 1011.8
20260503231245 15 179 0.0 0.0 0.00 0.00 0.00 38 1011.8
20260503230740 15 174 1.6 3.2 0.00 0.00 0.00 37 1011.6
20260503230238 15 224 6.4 6.4 0.00 0.00 0.00 36 1011.8
20260503225736 15 221 4.8 6.4 0.00 0.00 0.00 37 1011.6
20260503225235 15 183 1.6 3.2 0.00 0.00 0.00 38 1011.6
20260503224732 15 262 3.2 9.7 0.00 0.00 0.00 36 1011.4
20260503224230 15 217 3.2 4.8 0.00 0.00 0.00 38 1011.8
20260503223728 15 238 6.4 6.4 0.00 0.00 0.00 36 1011.8
20260503223225 15 275 3.2 3.2 0.00 0.00 0.00 37 1011.5
20260503222721 15 305 0.0 3.2 0.00 0.00 0.00 38 1011.8
20260503222219 15 284 1.6 6.4 0.00 0.00 0.00 38 1011.8
20260503221717 15 182 1.6 1.6 0.00 0.00 0.00 39 1011.7
20260503221215 15 279 3.2 3.2 0.00 0.00 0.00 36 1011.8
20260503220711 15 179 3.2 3.2 0.00 0.00 0.00 36 1011.8
20260503220208 15 176 0.0 0.0 0.00 0.00 0.00 38 1011.9
20260503215705 15 242 0.0 0.0 0.00 0.00 0.00 37 1011.7
20260503215202 15 237 0.0 0.0 0.00 0.00 0.00 37 1011.8
20260503214700 15 220 4.8 6.4 0.00 0.00 0.00 38 1011.8
20260503214155 15 233 0.0 0.0 0.00 0.00 0.00 36 1011.8
20260503213649 15 256 6.4 11.3 0.00 0.00 0.00 34 1011.6
20260503213146 15 205 0.0 0.0 0.00 0.00 0.00 37 1011.5
20260503212643 15 244 0.0 0.0 0.00 0.00 0.00 36 1011.6
20260503212140 15 257 4.8 4.8 0.00 0.00 0.00 36 1011.8
20260503211638 15 263 3.2 6.4 0.00 0.00 0.00 36 1011.6
20260503211133 15 263 0.0 1.6 0.00 0.00 0.00 37 1011.6
20260503210630 15 276 6.4 11.3 0.00 0.00 0.00 37 1011.6
20260503210127 15 293 8.0 12.9 0.00 0.00 0.00 36 1011.9
20260503205622 15 233 3.2 3.2 0.00 0.00 0.00 35 1011.4
20260503205119 14 222 6.4 9.7 0.00 0.00 0.00 36 1011.6
20260503204615 15 175 8.0 12.9 0.00 0.00 0.00 36 1011.7
20260503204113 15 214 6.4 11.3 0.00 0.00 0.00 34 1011.7
20260503203610 15 86 0.0 1.6 0.00 0.00 0.00 38 1011.5
20260503203108 15 178 3.2 3.2 0.00 0.00 0.00 36 1011.6
20260503202605 15 231 4.8 6.4 0.00 0.00 0.00 36 1011.9
20260503202103 14 209 1.6 3.2 0.00 0.00 0.00 37 1011.7
20260503201600 15 244 4.8 4.8 0.00 0.00 0.00 37 1011.7
20260503201057 15 245 0.0 1.6 0.00 0.00 0.00 36 1011.8
20260503200548 15 168 1.6 3.2 0.00 0.00 0.00 38 1011.9
20260503200044 15 264 0.0 1.6 0.00 0.00 0.00 37 1011.8
20260503195542 15 249 8.0 12.9 0.00 0.00 0.00 36 1012.1
20260503195038 15 216 1.6 3.2 0.00 0.00 0.00 36 1012.0
20260503194536 15 257 8.0 9.7 0.00 0.00 0.00 36 1012.0
20260503194035 14 172 0.0 0.0 0.00 0.00 0.00 38 1012.2
20260503193533 15 275 3.2 6.4 0.00 0.00 0.00 36 1012.2
20260503193028 15 173 3.2 6.4 0.00 0.00 0.00 36 1012.2
20260503192524 15 197 0.0 0.0 0.00 0.00 0.00 36 1012.2
20260503192020 14 104 3.2 4.8 0.00 0.00 0.00 36 1012.3
20260503191517 15 308 9.7 11.3 0.00 0.00 0.00 36 1012.3
20260503191014 15 180 4.8 6.4 0.00 0.00 0.00 36 1012.4
20260503190510 14 272 4.8 4.8 0.00 0.00 0.00 37 1012.5
20260503190008 15 272 0.0 0.0 0.00 0.00 0.00 37 1012.6
20260503185503 13 85 1.6 3.2 0.00 0.00 0.00 36 1012.6
20260503184958 14 237 0.0 1.6 0.00 0.00 0.00 38 1012.6
20260503184455 14 235 4.8 4.8 0.00 0.00 0.00 37 1012.9
20260503183951 14 319 0.0 1.6 0.00 0.00 0.00 38 1012.6
20260503183448 14 15 3.2 3.2 0.00 0.00 0.00 39 1012.6
20260503182944 15 235 6.4 6.4 0.00 0.00 0.00 35 1012.8
20260503182443 15 85 3.2 4.8 0.00 0.00 0.00 36 1012.9
20260503181941 14 244 0.0 0.0 0.00 0.00 0.00 41 1012.9
20260503181438 15 317 6.4 12.9 0.00 0.00 0.00 34 1013.0
20260503180933 14 255 4.8 11.3 0.00 0.00 0.00 37 1013.0
20260503180432 14 255 6.4 9.7 0.00 0.00 0.00 35 1012.8
20260503175928 13 235 0.0 1.6 0.00 0.00 0.00 39 1013.0
20260503175427 13 170 0.0 0.0 0.00 0.00 0.00 36 1013.0
20260503174922 13 111 3.2 3.2 0.00 0.00 0.00 35 1013.2
20260503174420 13 314 0.0 0.0 0.00 0.00 0.00 37 1013.2
20260503173915 13 102 3.2 4.8 0.00 0.00 0.00 35 1013.2
20260503173411 12 300 6.4 9.7 0.00 0.00 0.00 38 1013.3
20260503172908 13 318 8.0 14.5 0.00 0.00 0.00 37 1013.4
20260503172405 13 264 4.8 4.8 0.00 0.00 0.00 35 1013.4
20260503171901 13 241 6.4 6.4 0.00 0.00 0.00 39 1013.5
20260503171358 12 218 4.8 6.4 0.00 0.00 0.00 40 1013.6
20260503170856 12 257 6.4 9.7 0.00 0.00 0.00 40 1013.8
20260503170352 13 240 4.8 4.8 0.00 0.00 0.00 37 1013.9
20260503150744 10 293 0.0 0.0 0.00 0.00 0.00 43 1015.2
20260503150240 10 167 0.0 1.6 0.00 0.00 0.00 44 1014.8
20260503140204 9 192 0.0 1.6 0.00 0.00 0.00 52 1015.7
20260503131134 7 170 0.0 0.0 0.00 0.00 0.00 53 1015.7
20260503130632 7 179 1.6 3.2 0.00 0.00 0.00 53 1015.7
20260503130129 7 261 0.0 1.6 0.00 0.00 0.00 50 1015.7
20260503110522 3 169 0.0 0.0 0.00 0.00 0.00 75 1015.5
20260503090409 4 164 0.0 0.0 0.00 0.00 0.00 70 1014.5
20260503081335 5 177 0.0 0.0 0.00 0.00 0.00 69 1014.5
20260503080832 5 179 0.0 0.0 0.00 0.00 0.00 67 1014.2
20260503080329 5 180 0.0 0.0 0.00 0.00 0.00 67 1014.3
20260503072805 5 188 0.0 0.0 0.00 0.00 0.00 68 1014.0
20260503072305 5 179 0.0 0.0 0.00 0.00 0.00 70 1014.0
20260503071758 5 167 0.0 0.0 0.00 0.00 0.00 72 1014.0
20260503071256 5 173 0.0 0.0 0.00 0.00 0.00 71 1013.8
20260503070752 5 188 0.0 0.0 0.00 0.00 0.00 69 1014.2
20260503070250 5 203 0.0 0.0 0.00 0.00 0.00 70 1013.7
20260503060209 6 232 0.0 0.0 0.00 0.00 0.00 65 1014.1
20260503054656 6 183 0.0 0.0 0.00 0.00 0.00 65 1014.3
20260503054153 6 188 0.0 0.0 0.00 0.00 0.00 64 1014.4
20260503053651 6 224 0.0 0.0 0.00 0.00 0.00 66 1014.2
20260503053149 6 174 0.0 0.0 0.00 0.00 0.00 63 1014.2